Tracking 19254 objects as of 20-Oct-2018
HD Live streaming from Space Station
objects crossing your sky now

COSMOS 2323 (GLONASS)

Track COSMOS 2323 (GLONASS) now!
COSMOS 2323 (GLONASS) is classified as:


NORAD ID: 23736
Int'l Code: 1995-068C
Perigee: 19,115.4 km
Apogee: 19,158.6 km
Inclination: 66.1 °
Period: 675.7 minutes
Semi major axis: 25508 km
RCS: 3.8825 m2 (large)
Launch date: December 14, 1995
Source: Commonwealth of Independent States (former USSR) (CIS)
Launch site: TYURATAM MISSILE AND SPACE COMPLEX (TTMTR)
SV:
aabbcc
Your satellite tracking list
Your tracking list is empty




NASA's NSSDC Master Catalog

Two Line Element Set (TLE):
1 23736U 95068C   18292.32092168 +.00000033 +00000-0 +00000-0 0  9998
2 23736 066.0771 294.0499 0008481 195.6853 296.9064 02.13102205177585
Source of the keplerian elements: AFSPC